Date String (YYYY-MM-DD hh:mm:ss) UTC,Instrument flags,Ambient pressure (hPa),Sample flow (lpm),Bypass flow (lpm),Sample temperature (°C),Ambient temperature (°C),ASC tube jacket temperature (°C),LED temperature (°C),Box temperature (°C),Sample RH (%),Span deviation,Mass concentration (μg/m³),Mass concentration (μg/m³),Mass concentration (μg/m³)
DateTimeUTC,F1_M11,P_M11,Q1_M11,Q2_M11,T1_M11,T2_M11,T3_M11,T4_M11,T5_M11,U1_M11,ZSPAN_M11,X0_M11,X2_M11,X1_M11
2021-10-22 18:00:00,,0826.9,5.00,0.00,30.3,29.6,00.0,39.2,32.1,09.6,0003.2,0017.21,0004.85,0003.80
2021-10-22 18:01:00,,0827.0,5.00,0.00,30.3,29.6,00.0,39.2,32.1,09.1,-002.3,0018.86,0004.88,0003.77
2021-10-22 18:02:00,,0826.9,4.99,0.00,30.3,29.6,00.0,39.3,32.1,08.9,-001.6,0018.88,0004.85,0003.70
2021-10-22 18:03:00,,0827.0,5.01,0.00,30.3,29.6,00.0,39.3,32.1,08.8,-001.9,0017.92,0004.76,0003.64
2021-10-22 18:04:00,,0826.9,4.99,0.00,30.4,29.7,00.0,39.3,32.2,08.9,-001.5,0018.17,0004.69,0003.59
2021-10-22 18:05:00,,0826.9,5.00,0.00,30.4,29.7,00.0,39.3,32.2,08.9,-000.6,0017.61,0004.60,0003.52
2021-10-22 18:06:00,,0826.9,4.99,0.00,30.4,29.7,00.0,39.3,32.2,09.0,0000.0,0016.83,0004.51,0003.46
2021-10-22 18:07:00,,0826.9,5.00,0.00,30.4,29.7,00.0,39.4,32.2,09.0,0000.0,0016.85,0004.44,0003.39
2021-10-22 18:08:00,,0826.9,5.00,0.00,30.4,29.8,00.0,39.4,32.2,09.1,0000.0,0015.43,0004.36,0003.33
2021-10-22 18:09:00,,0827.2,5.00,0.00,30.4,29.8,00.0,39.4,32.3,09.1,0000.0,0014.96,0004.27,0003.27
2021-10-22 18:10:00,,0826.8,4.99,0.00,30.5,29.8,00.0,39.4,32.3,09.2,0000.0,0015.01,0004.24,0003.21
2021-10-22 18:11:00,,0826.9,5.00,0.00,30.5,29.8,00.0,39.4,32.3,09.3,0000.0,0015.25,0004.24,0003.19
2021-10-22 18:12:00,,0826.8,5.00,0.00,30.5,29.8,00.0,39.5,32.3,09.0,0000.0,0014.46,0004.24,0003.19
2021-10-22 18:13:00,,0826.8,5.00,0.00,30.5,29.9,00.0,39.5,32.3,08.7,0000.0,0013.88,0004.17,0003.15
2021-10-22 18:14:00,,0826.8,5.01,0.00,30.5,29.9,00.0,39.5,32.4,08.7,0000.0,0013.62,0004.11,0003.12
2021-10-22 18:15:00,,0826.8,5.01,0.00,30.6,29.9,00.0,39.5,32.4,08.5,0000.0,0012.89,0004.08,0003.08
2021-10-22 18:16:00,,0826.8,5.01,0.00,30.6,29.9,00.0,39.5,32.4,08.6,0000.0,0012.82,0004.13,0003.06
2021-10-22 18:17:00,,0826.8,5.01,0.00,30.6,29.9,00.0,39.6,32.4,08.4,0000.0,0012.54,0004.14,0003.03
2021-10-22 18:18:00,,0826.7,5.01,0.00,30.6,29.9,00.0,39.6,32.4,08.3,0000.0,0012.30,0004.10,0002.97
2021-10-22 18:19:00,,0826.7,5.01,0.00,30.7,30.0,00.0,39.6,32.4,08.5,0000.0,0013.14,0004.06,0002.90
2021-10-22 18:20:00,,0826.7,4.99,0.00,30.7,30.0,00.0,39.6,32.5,08.8,0000.0,0012.78,0004.00,0002.83
2021-10-22 18:21:00,,0826.7,5.00,0.00,30.7,30.0,00.0,39.6,32.5,08.7,0000.0,0012.56,0003.93,0002.78
2021-10-22 18:22:00,,0826.7,5.00,0.00,30.7,30.1,00.0,39.7,32.5,08.8,0000.0,0012.69,0003.82,0002.69
2021-10-22 18:23:00,,0826.6,5.01,0.00,30.7,30.1,00.0,39.7,32.5,09.1,0000.0,0012.32,0003.76,0002.64
2021-10-22 18:24:00,,0826.6,4.99,0.00,30.8,30.1,00.0,39.7,32.5,09.0,0000.0,0012.09,0003.74,0002.68
2021-10-22 18:25:00,,0826.6,5.01,0.00,30.8,30.1,00.0,39.7,32.6,09.2,0000.0,0011.58,0003.81,0002.79
2021-10-22 18:26:00,,0826.5,4.99,0.00,30.8,30.1,00.0,39.7,32.6,09.5,0000.0,0012.16,0003.96,0002.92
2021-10-22 18:27:00,,0826.6,5.00,0.00,30.8,30.2,00.0,39.8,32.6,09.5,0000.0,0012.42,0004.09,0003.08
2021-10-22 18:28:00,,0826.5,5.00,0.00,30.9,30.2,00.0,39.8,32.6,09.7,0000.0,0012.77,0004.20,0003.19
2021-10-22 18:29:00,,0826.5,5.00,0.00,30.9,30.2,00.0,39.8,32.6,09.7,0000.0,0013.38,0004.39,0003.30
2021-10-22 18:30:00,,0826.5,5.00,0.00,30.9,30.2,00.0,39.8,32.7,09.7,0000.0,0013.49,0004.54,0003.41
2021-10-22 18:31:00,,0826.5,5.00,0.00,30.9,30.3,00.0,39.8,32.7,09.6,0000.0,0014.37,0004.76,0003.50
2021-10-22 18:32:00,,0826.5,5.01,0.00,31.0,30.5,00.0,39.9,32.8,09.5,0000.0,0014.93,0004.94,0003.59
2021-10-22 18:33:00,,0826.5,5.00,0.00,31.0,30.5,00.0,40.0,32.8,09.5,0000.0,0015.69,0005.10,0003.68
2021-10-22 18:34:00,,0826.5,5.00,0.00,31.1,30.5,00.0,40.0,32.9,09.5,0000.0,0016.66,0005.25,0003.74
2021-10-22 18:35:00,,0826.5,5.00,0.00,31.1,30.5,00.0,40.0,32.9,09.3,0000.0,0017.12,0005.36,0003.79
2021-10-22 18:36:00,,0826.5,4.99,0.00,31.1,29.5,00.0,40.0,32.7,09.0,0000.0,0017.91,0005.46,0003.81
2021-10-22 18:37:00,,0826.5,5.00,0.00,31.0,27.4,00.0,40.0,32.3,09.0,0000.0,0017.30,0005.41,0003.81
2021-10-22 18:38:00,,0826.5,5.01,0.00,30.8,25.7,00.0,39.9,31.9,09.2,0000.0,0017.52,0005.34,0003.79
2021-10-22 18:39:00,,0826.4,4.99,0.00,30.6,25.7,00.0,39.8,31.8,09.4,0000.0,0018.84,0005.36,0003.76
2021-10-22 18:40:00,,0826.4,5.00,0.00,30.5,26.3,00.0,39.8,31.8,09.5,0000.0,0019.63,0005.31,0003.72
2021-10-22 18:41:00,,0826.4,5.01,0.00,30.4,26.8,00.0,39.7,31.8,09.5,0000.0,0020.41,0005.30,0003.70
2021-10-22 18:42:00,,0826.3,5.00,0.00,30.4,27.3,00.0,39.6,31.8,09.8,0000.0,0019.98,0005.25,0003.69
2021-10-22 18:43:00,,0826.3,5.00,0.00,30.3,27.8,00.0,39.6,31.8,09.7,0000.0,0020.24,0005.24,0003.69
2021-10-22 18:44:00,,0826.4,4.99,0.00,30.3,28.2,00.0,39.5,31.9,09.8,-000.4,0019.50,0005.19,0003.67
2021-10-22 18:45:00,,0826.3,5.00,0.00,30.3,28.5,00.0,39.5,31.9,09.9,-002.4,0018.85,0005.12,0003.66
2021-10-22 18:46:00,,0826.2,5.01,0.00,30.3,28.7,00.0,39.5,31.9,10.0,-002.6,0018.41,0005.13,0003.66
2021-10-22 18:47:00,,0826.2,5.00,0.00,30.3,28.9,00.0,39.4,32.0,10.0,-002.1,0018.24,0005.14,0003.68
2021-10-22 18:48:00,,0826.2,4.99,0.00,30.3,29.0,00.0,39.4,32.0,09.8,-001.9,0018.66,0005.21,0003.68
2021-10-22 18:49:00,,0826.2,5.00,0.00,30.3,29.2,00.0,39.4,32.0,09.4,-000.3,0017.84,0005.19,0003.68
2021-10-22 18:50:00,,0826.2,5.00,0.00,30.4,29.3,00.0,39.4,32.1,09.4,-000.4,0017.03,0005.17,0003.67
2021-10-22 18:51:00,,0826.2,4.99,0.00,30.4,29.4,00.0,39.4,32.1,09.3,-001.2,0017.33,0005.17,0003.64
2021-10-22 18:52:00,,0826.2,5.00,0.00,30.4,29.5,00.0,39.4,32.1,09.3,0000.0,0017.16,0005.13,0003.61
2021-10-22 18:53:00,,0826.2,5.01,0.00,30.4,29.5,00.0,39.5,32.2,09.4,0000.0,0017.07,0005.09,0003.56
2021-10-22 18:54:00,,0826.2,5.00,0.00,30.5,29.6,00.0,39.5,32.2,09.7,0000.0,0016.82,0005.09,0003.54
2021-10-22 18:55:00,,0826.1,4.99,0.00,30.5,29.7,00.0,39.5,32.3,09.8,0000.0,0017.20,0005.09,0003.52
2021-10-22 18:56:00,,0826.0,5.00,0.00,30.5,29.7,00.0,39.5,32.3,09.7,0000.0,0017.51,0005.15,0003.52
2021-10-22 18:57:00,,0826.0,5.00,0.00,30.5,29.7,00.0,39.5,32.3,09.8,0000.0,0017.76,0005.12,0003.51
2021-10-22 18:58:00,,0826.0,5.01,0.00,30.5,28.2,00.0,39.5,32.1,09.7,0000.0,0018.20,0005.12,0003.50
2021-10-22 18:59:00,,0825.9,5.00,0.00,30.4,26.3,00.0,39.5,31.7,09.8,0000.0,0018.06,0005.08,0003.48
